K6OUA-11 Weather Reports


Display with metric or nautical units.
time (UTC)temp
F
wind
direction
speed
MPH
gust
MPH
rain 1hr
in
rain 24hr
in
rain mn
in
humidity
%
barometer
mb
20260507033942 62 296 1.0 1.0 0.00 0.00 0.00 75
20260507033740 62 257 0.0 0.0 0.00 0.00 0.00 75
20260507033538 62 257 0.0 0.0 0.00 0.00 0.00 75
20260507033336 62 257 0.0 0.0 0.00 0.00 0.00 75
20260507033134 62 257 0.0 2.0 0.00 0.00 0.00 75
20260507032932 62 257 0.0 2.0 0.00 0.00 0.00 74
20260507032730 62 257 0.0 3.0 0.00 0.00 0.00 75
20260507032529 62 257 0.0 3.0 0.00 0.00 0.00 75
20260507032327 62 286 2.0 3.0 0.00 0.00 0.00 75
20260507032125 62 288 1.0 1.0 0.00 0.00 0.00 74
20260507031923 62 262 0.0 1.0 0.00 0.00 0.00 74
20260507031721 62 240 0.0 0.0 0.00 0.00 0.00 74
20260507031519 62 239 0.0 0.0 0.00 0.00 0.00 73
20260507031315 62 239 0.0 0.0 0.00 0.00 0.00 73
20260507031115 63 239 0.0 0.0 0.00 0.00 0.00 72
20260507030913 63 239 0.0 0.0 0.00 0.00 0.00 72
20260507030712 63 239 0.0 2.0 0.00 0.00 0.00 72
20260507030510 63 239 0.0 2.0 0.00 0.00 0.00 71
20260507025903 63 282 2.0 2.0 0.00 0.00 0.00 71
20260507025702 63 279 1.0 0.0 0.00 0.00 0.00 71
20260507025055 64 253 0.0 0.0 0.00 0.00 0.00 69
20260507024854 64 253 0.0 0.0 0.00 0.00 0.00 68
20260507024651 64 253 0.0 0.0 0.00 0.00 0.00 68
20260507024249 65 253 0.0 0.0 0.00 0.00 0.00 67
20260507024046 65 253 0.0 0.0 0.00 0.00 0.00 67
20260507023845 65 253 0.0 0.0 0.00 0.00 0.00 67
20260507023441 65 253 0.0 4.0 0.00 0.00 0.00 67
20260507023239 65 253 0.0 6.0 0.00 0.00 0.00 67
20260507023037 65 284 2.0 6.0 0.00 0.00 0.00 67
20260507022432 65 274 4.0 6.0 0.00 0.00 0.00 66
20260507022028 66 293 4.0 7.0 0.00 0.00 0.00 65
20260507021624 66 286 4.0 6.0 0.00 0.00 0.00 64
20260507021422 66 300 3.0 6.0 0.00 0.00 0.00 63
20260507021220 66 275 4.0 7.0 0.00 0.00 0.00 63
20260507021018 66 289 4.0 7.0 0.00 0.00 0.00 63
20260507020816 66 272 5.0 8.0 0.00 0.00 0.00 62
20260507020615 66 281 2.0 8.0 0.00 0.00 0.00 62
20260507020412 66 303 3.0 8.0 0.00 0.00 0.00 62
20260507020211 66 274 6.0 8.0 0.00 0.00 0.00 62
20260507020009 66 278 6.0 8.0 0.00 0.00 0.00 62
20260507015805 67 265 7.0 8.0 0.00 0.00 0.00 62
20260507015603 67 267 5.0 8.0 0.00 0.00 0.00 62
20260507015401 66 278 6.0 8.0 0.00 0.00 0.00 61
20260507015159 67 274 7.0 7.0 0.00 0.00 0.00 60
20260507014957 67 307 3.0 7.0 0.00 0.00 0.00 61
20260507014757 67 254 5.0 6.0 0.00 0.00 0.00 60
20260507014555 67 270 5.0 6.0 0.00 0.00 0.00 61
20260507014353 67 279 3.0 6.0 0.00 0.00 0.00 60
20260507014151 67 246 3.0 10.0 0.00 0.00 0.00 61
20260507013948 67 277 5.0 10.0 0.00 0.00 0.00 61
20260507013748 67 278 5.0 9.0 0.00 0.00 0.00 60
20260507013546 67 279 4.0 9.0 0.00 0.00 0.00 59
20260507013344 67 271 8.0 9.0 0.00 0.00 0.00 59
20260507012940 68 309 3.0 9.0 0.00 0.00 0.00 59
20260507012738 68 268 2.0 10.0 0.00 0.00 0.00 59
20260507012537 68 230 3.0 10.0 0.00 0.00 0.00 59
20260507012333 68 222 4.0 10.0 0.00 0.00 0.00 59
20260507012132 67 246 7.0 12.0 0.00 0.00 0.00 58
20260507011931 68 295 5.0 12.0 0.00 0.00 0.00 59
20260507011729 67 279 7.0 10.0 0.00 0.00 0.00 59
20260507011325 68 284 6.0 10.0 0.00 0.00 0.00 57
20260507011121 68 265 7.0 9.0 0.00 0.00 0.00 57
20260507010921 68 247 0.0 9.0 0.00 0.00 0.00 57
20260507010719 68 265 5.0 13.0 0.00 0.00 0.00 57
20260507010611 68 248 2.0 13.0 0.00 0.00 0.00 57
20260507010517 68 248 2.0 13.0 0.00 0.00 0.00 57
20260507010315 68 241 6.0 12.0 0.00 0.00 0.00 58
20260507005912 68 275 6.0 12.0 0.00 0.00 0.00 57
20260507005710 68 253 7.0 13.0 0.00 0.00 0.00 57
20260507005507 68 257 6.0 13.0 0.00 0.00 0.00 57
20260507005306 68 275 7.0 13.0 0.00 0.00 0.00 58
20260507005104 68 275 7.0 13.0 0.00 0.00 0.00 58
20260507004902 68 274 8.0 13.0 0.00 0.00 0.00 57
20260507004700 69 251 11.0 13.0 0.00 0.00 0.00 57
20260507004458 69 250 3.0 13.0 0.00 0.00 0.00 58
20260507004256 69 272 9.0 12.0 0.00 0.00 0.00 58
20260507004055 68 253 4.0 12.0 0.00 0.00 0.00 58
20260507003851 68 258 7.0 12.0 0.00 0.00 0.00 58
20260507003449 68 244 8.0 12.0 0.00 0.00 0.00 58
20260507003245 68 284 7.0 13.0 0.00 0.00 0.00 57
20260507003045 69 267 10.0 13.0 0.00 0.00 0.00 56
20260507002843 69 293 3.0 13.0 0.00 0.00 0.00 57
20260507002641 69 275 2.0 13.0 0.00 0.00 0.00 58
20260507002437 69 257 7.0 13.0 0.00 0.00 0.00 57
20260507002035 70 258 7.0 14.0 0.00 0.00 0.00 56
20260507001833 69 272 9.0 14.0 0.00 0.00 0.00 56
20260507001631 69 264 6.0 14.0 0.00 0.00 0.00 56
20260507001228 69 244 3.0 16.0 0.00 0.00 0.00 57
20260507000823 69 255 7.0 16.0 0.00 0.00 0.00 57
20260507000620 69 279 10.0 13.0 0.00 0.00 0.00 56
20260507000420 70 260 9.0 13.0 0.00 0.00 0.00 56
20260507000216 70 255 2.0 13.0 0.00 0.00 0.00 57
20260507000014 69 251 9.0 13.0 0.00 0.00 0.00 56
20260506235814 69 268 7.0 11.0 0.00 0.00 0.00 56
20260506235612 70 258 8.0 11.0 0.00 0.00 0.00 55
20260506235410 70 255 9.0 11.0 0.00 0.00 0.00 56
20260506235208 71 277 9.0 15.0 0.00 0.00 0.00 55
20260506235006 71 247 3.0 15.0 0.00 0.00 0.00 55
20260506234602 70 270 9.0 15.0 0.00 0.00 0.00 56
20260506234400 70 272 8.0 15.0 0.00 0.00 0.00 55
20260506234158 70 261 10.0 15.0 0.00 0.00 0.00 56
20260506233552 70 264 3.0 14.0 0.00 0.00 0.00 57
20260506233350 70 230 8.0 14.0 0.00 0.00 0.00 57
20260506233148 70 268 8.0 14.0 0.00 0.00 0.00 57
20260506232946 70 248 9.0 14.0 0.00 0.00 0.00 57
20260506232743 71 281 7.0 14.0 0.00 0.00 0.00 55
20260506232543 71 244 8.0 14.0 0.00 0.00 0.00 57
20260506232341 71 267 9.0 14.0 0.00 0.00 0.00 56
20260506231936 71 272 8.0 11.0 0.00 0.00 0.00 54
20260506231734 72 277 2.0 10.0 0.00 0.00 0.00 55
20260506231531 72 305 1.0 10.0 0.00 0.00 0.00 55
20260506231331 72 246 7.0 10.0 0.00 0.00 0.00 55
20260506230927 71 268 3.0 16.0 0.00 0.00 0.00 56
20260506230724 71 277 6.0 17.0 0.00 0.00 0.00 56
20260506230523 71 248 5.0 17.0 0.00 0.00 0.00 56
20260506230319 72 254 16.0 15.0 0.00 0.00 0.00 54
20260506230119 71 71 1.0 15.0 0.00 0.00 0.00 56
20260506225917 71 198 3.0 15.0 0.00 0.00 0.00 55
20260506225713 71 244 4.0 13.0 0.00 0.00 0.00 56
20260506225513 71 274 8.0 13.0 0.00 0.00 0.00 55
20260506225311 72 270 8.0 16.0 0.00 0.00 0.00 55
20260506225109 71 271 7.0 16.0 0.00 0.00 0.00 55
20260506224705 72 270 7.0 12.0 0.00 0.00 0.00 54
20260506224301 72 240 1.0 14.0 0.00 0.00 0.00 54
20260506224059 72 282 2.0 14.0 0.00 0.00 0.00 54
20260506223857 71 261 6.0 14.0 0.00 0.00 0.00 53
20260506223655 72 255 10.0 14.0 0.00 0.00 0.00 53
20260506223251 73 219 5.0 13.0 0.00 0.00 0.00 52
20260506223050 73 248 3.0 13.0 0.00 0.00 0.00 52
20260506222847 72 250 13.0 13.0 0.00 0.00 0.00 52
20260506222443 73 198 3.0 14.0 0.00 0.00 0.00 51
20260506222240 72 241 2.0 15.0 0.00 0.00 0.00 52
20260506222038 72 281 3.0 15.0 0.00 0.00 0.00 52
20260506221837 72 248 9.0 15.0 0.00 0.00 0.00 51
20260506221434 72 264 7.0 14.0 0.00 0.00 0.00 51
20260506221232 72 271 8.0 15.0 0.00 0.00 0.00 51
20260506221030 72 285 2.0 15.0 0.00 0.00 0.00 51
20260506220828 72 267 11.0 15.0 0.00 0.00 0.00 51
20260506220222 72 246 11.0 13.0 0.00 0.00 0.00 51
20260506220020 72 261 7.0 13.0 0.00 0.00 0.00 51
20260506215818 72 274 7.0 13.0 0.00 0.00 0.00 52
20260506215616 72 289 5.0 13.0 0.00 0.00 0.00 50
20260506215414 72 261 11.0 13.0 0.00 0.00 0.00 50
20260506215212 73 246 5.0 13.0 0.00 0.00 0.00 51
20260506215010 72 261 7.0 13.0 0.00 0.00 0.00 52
20260506214806 72 284 7.0 19.0 0.00 0.00 0.00 53
20260506214606 72 246 8.0 19.0 0.00 0.00 0.00 52
20260506214404 71 265 8.0 19.0 0.00 0.00 0.00 52
20260506214202 71 282 7.0 13.0 0.00 0.00 0.00 51
20260506214001 72 293 9.0 13.0 0.00 0.00 0.00 52
20260506213758 72 233 5.0 13.0 0.00 0.00 0.00 52
20260506213557 72 268 6.0 13.0 0.00 0.00 0.00 52
20260506213355 72 257 9.0 13.0 0.00 0.00 0.00 52
20260506213152 71 289 6.0 13.0 0.00 0.00 0.00 53
20260506212749 72 247 11.0 15.0 0.00 0.00 0.00 51
20260506212547 72 253 6.0 15.0 0.00 0.00 0.00 51
20260506212345 73 277 6.0 15.0 0.00 0.00 0.00 51
20260506211739 72 305 1.0 13.0 0.00 0.00 0.00 53
20260506211537 71 260 9.0 13.0 0.00 0.00 0.00 53
20260506211335 71 286 8.0 13.0 0.00 0.00 0.00 52
20260506211133 72 243 8.0 13.0 0.00 0.00 0.00 53
20260506210931 72 275 1.0 13.0 0.00 0.00 0.00 54
20260506210729 72 264 4.0 13.0 0.00 0.00 0.00 54
20260506210526 71 282 9.0 13.0 0.00 0.00 0.00 54
20260506210326 71 246 7.0 13.0 0.00 0.00 0.00 55
20260506205921 71 303 7.0 13.0 0.00 0.00 0.00 52
20260506205719 72 248 4.0 13.0 0.00 0.00 0.00 53
20260506205515 72 282 3.0 13.0 0.00 0.00 0.00 54
20260506205315 72 250 9.0 13.0 0.00 0.00 0.00 53
20260506205113 72 300 6.0 13.0 0.00 0.00 0.00 52
20260506204911 72 250 2.0 13.0 0.00 0.00 0.00 54
20260506204507 71 289 2.0 13.0 0.00 0.00 0.00 54
20260506204306 71 272 8.0 16.0 0.00 0.00 0.00 54
20260506204104 71 167 1.0 16.0 0.00 0.00 0.00 55
20260506203902 71 262 9.0 16.0 0.00 0.00 0.00 53
20260506203700 71 246 7.0 15.0 0.00 0.00 0.00 55
20260506203457 70 296 9.0 15.0 0.00 0.00 0.00 53
20260506203255 71 253 8.0 12.0 0.00 0.00 0.00 53
20260506203054 72 265 6.0 12.0 0.00 0.00 0.00 51
20260506202851 73 271 11.0 12.0 0.00 0.00 0.00 49
20260506202650 73 270 7.0 12.0 0.00 0.00 0.00 49
20260506202447 74 282 5.0 12.0 0.00 0.00 0.00 50
20260506202246 73 293 3.0 10.0 0.00 0.00 0.00 50
20260506202044 73 264 5.0 10.0 0.00 0.00 0.00 50
20260506201840 73 278 2.0 10.0 0.00 0.00 0.00 51
20260506201640 73 271 3.0 11.0 0.00 0.00 0.00 50
20260506201438 73 202 1.0 11.0 0.00 0.00 0.00 49
20260506201236 73 278 6.0 9.0 0.00 0.00 0.00 49
20260506201034 73 264 6.0 9.0 0.00 0.00 0.00 48
20260506200832 73 281 6.0 9.0 0.00 0.00 0.00 49
20260506200226 72 239 3.0 12.0 0.00 0.00 0.00 51
20260506200024 72 229 2.0 12.0 0.00 0.00 0.00 51
20260506195822 71 281 8.0 12.0 0.00 0.00 0.00 48
20260506195620 72 267 7.0 13.0 0.00 0.00 0.00 50
20260506195217 71 180 4.0 10.0 0.00 0.00 0.00 51
20260506195015 71 257 11.0 10.0 0.00 0.00 0.00 51
20260506194813 71 279 9.0 11.0 0.00 0.00 0.00 50
20260506194611 71 275 7.0 11.0 0.00 0.00 0.00 49
20260506194410 71 271 8.0 11.0 0.00 0.00 0.00 48
20260506194206 71 296 5.0 13.0 0.00 0.00 0.00 49
20260506194005 71 281 4.0 13.0 0.00 0.00 0.00 48
20260506193803 71 260 6.0 11.0 0.00 0.00 0.00 48
20260506193600 70 286 12.0 11.0 0.00 0.00 0.00 48
20260506193357 71 251 7.0 11.0 0.00 0.00 0.00 48
20260506193157 71 272 3.0 11.0 0.00 0.00 0.00 49
20260506192958 70 284 7.0 11.0 0.00 0.00 0.00 48
20260506192753 70 275 8.0 12.0 0.00 0.00 0.00 48
20260506192551 70 279 8.0 12.0 0.00 0.00 0.00 48
20260506192349 70 275 4.0 12.0 0.00 0.00 0.00 48
20260506192147 71 296 6.0 13.0 0.00 0.00 0.00 49
20260506191945 70 271 6.0 13.0 0.00 0.00 0.00 48
20260506191743 70 272 6.0 7.0 0.00 0.00 0.00 48
20260506191541 71 257 2.0 7.0 0.00 0.00 0.00 46
20260506191340 71 268 3.0 7.0 0.00 0.00 0.00 48
20260506191137 71 264 3.0 11.0 0.00 0.00 0.00 49
20260506190935 70 267 1.0 11.0 0.00 0.00 0.00 49
20260506190733 70 258 5.0 12.0 0.00 0.00 0.00 49
20260506190531 70 278 7.0 12.0 0.00 0.00 0.00 49
20260506190329 70 255 5.0 12.0 0.00 0.00 0.00 50
20260506190128 70 267 10.0 10.0 0.00 0.00 0.00 50
20260506185926 69 258 4.0 10.0 0.00 0.00 0.00 50
20260506185522 70 254 9.0 13.0 0.00 0.00 0.00 50
20260506185118 70 255 5.0 11.0 0.00 0.00 0.00 51
20260506184916 69 241 4.0 11.0 0.00 0.00 0.00 51
20260506184714 70 274 9.0 13.0 0.00 0.00 0.00 51
20260506184512 69 195 4.0 13.0 0.00 0.00 0.00 53
20260506184108 68 285 5.0 12.0 0.00 0.00 0.00 51
20260506183704 68 278 4.0 9.0 0.00 0.00 0.00 53
20260506183503 69 282 7.0 9.0 0.00 0.00 0.00 50
20260506183300 69 302 2.0 15.0 0.00 0.00 0.00 52
20260506182655 68 284 7.0 13.0 0.00 0.00 0.00 52
20260506182452 68 267 11.0 13.0 0.00 0.00 0.00 53
20260506182048 68 244 7.0 11.0 0.00 0.00 0.00 54
20260506181847 68 281 6.0 11.0 0.00 0.00 0.00 53
20260506181645 68 265 6.0 12.0 0.00 0.00 0.00 54
20260506181443 67 284 6.0 12.0 0.00 0.00 0.00 52
20260506181241 68 258 9.0 11.0 0.00 0.00 0.00 52
20260506181040 68 247 8.0 11.0 0.00 0.00 0.00 53
20260506180837 68 277 3.0 11.0 0.00 0.00 0.00 53
20260506180636 68 274 8.0 11.0 0.00 0.00 0.00 52
20260506180434 68 272 5.0 11.0 0.00 0.00 0.00 51
20260506180232 68 257 10.0 7.0 0.00 0.00 0.00 52
20260506180030 68 255 1.0 7.0 0.00 0.00 0.00 55
20260506175828 67 248 1.0 7.0 0.00 0.00 0.00 55
20260506175424 67 296 3.0 10.0 0.00 0.00 0.00 54
20260506175222 66 293 5.0 11.0 0.00 0.00 0.00 54
20260506175020 68 282 8.0 11.0 0.00 0.00 0.00 53
20260506174819 67 222 0.0 10.0 0.00 0.00 0.00 54
20260506174415 67 275 3.0 10.0 0.00 0.00 0.00 56
20260506174213 67 281 8.0 10.0 0.00 0.00 0.00 56
20260506174011 66 237 1.0 10.0 0.00 0.00 0.00 55
20260506173809 67 277 5.0 9.0 0.00 0.00 0.00 55
20260506173607 66 272 6.0 9.0 0.00 0.00 0.00 55
20260506173405 66 271 8.0 9.0 0.00 0.00 0.00 56
20260506173203 66 272 3.0 9.0 0.00 0.00 0.00 56
20260506173002 66 285 3.0 9.0 0.00 0.00 0.00 55
20260506172800 66 285 7.0 11.0 0.00 0.00 0.00 55
20260506172557 66 305 4.0 11.0 0.00 0.00 0.00 56
20260506172356 66 282 4.0 11.0 0.00 0.00 0.00 56
20260506171954 66 277 8.0 12.0 0.00 0.00 0.00 56
20260506171750 66 302 4.0 8.0 0.00 0.00 0.00 57
20260506171548 66 293 6.0 8.0 0.00 0.00 0.00 57
20260506171346 66 300 2.0 8.0 0.00 0.00 0.00 57
20260506171144 66 271 2.0 12.0 0.00 0.00 0.00 57
20260506170943 65 289 4.0 12.0 0.00 0.00 0.00 57
20260506170741 65 292 8.0 9.0 0.00 0.00 0.00 58
20260506170539 65 262 5.0 9.0 0.00 0.00 0.00 58
20260506170336 65 282 8.0 9.0 0.00 0.00 0.00 59
20260506170135 65 253 4.0 11.0 0.00 0.00 0.00 60
20260506165933 65 215 0.0 11.0 0.00 0.00 0.00 61
20260506165731 64 288 5.0 10.0 0.00 0.00 0.00 60
20260506165529 65 261 10.0 10.0 0.00 0.00 0.00 59
20260506165327 65 270 9.0 10.0 0.00 0.00 0.00 59
20260506165125 65 272 8.0 10.0 0.00 0.00 0.00 60
20260506164924 64 282 4.0 10.0 0.00 0.00 0.00 60
20260506164721 64 282 5.0 10.0 0.00 0.00 0.00 61
20260506164520 64 264 5.0 10.0 0.00 0.00 0.00 62
20260506164318 64 274 7.0 10.0 0.00 0.00 0.00 62
20260506164116 63 288 4.0 10.0 0.00 0.00 0.00 62
20260506163914 64 275 8.0 10.0 0.00 0.00 0.00 61
20260506163712 64 275 5.0 9.0 0.00 0.00 0.00 61
20260506163510 64 296 5.0 9.0 0.00 0.00 0.00 60
20260506163106 64 268 6.0 9.0 0.00 0.00 0.00 61
20260506162702 64 288 5.0 9.0 0.00 0.00 0.00 61
20260506162259 63 302 5.0 6.0 0.00 0.00 0.00 62
20260506162057 64 210 0.0 6.0 0.00 0.00 0.00 62
20260506161855 64 264 2.0 6.0 0.00 0.00 0.00 63
20260506161450 64 274 4.0 6.0 0.00 0.00 0.00 61
20260506161249 64 257 4.0 2.0 0.00 0.00 0.00 60
20260506160845 64 234 0.0 2.0 0.00 0.00 0.00 60
20260506160442 64 184 0.0 3.0 0.00 0.00 0.00 60
20260506160240 64 292 2.0 2.0 0.00 0.00 0.00 59
20260506160038 64 254 0.0 2.0 0.00 0.00 0.00 58
20260506155836 64 116 0.0 2.0 0.00 0.00 0.00 62
20260506155432 63 217 1.0 2.0 0.00 0.00 0.00 59
20260506155230 63 196 0.0 3.0 0.00 0.00 0.00 60
20260506154826 63 164 2.0 3.0 0.00 0.00 0.00 61
20260506154624 63 143 2.0 4.0 0.00 0.00 0.00 65
20260506154422 63 118 2.0 4.0 0.00 0.00 0.00 63
20260506154019 62 71 1.0 4.0 0.00 0.00 0.00 65
20260506153413 61 136 0.0 3.0 0.00 0.00 0.00 68
20260506153211 60 80 0.0 3.0 0.00 0.00 0.00 69
20260506153009 60 229 1.0 3.0 0.00 0.00 0.00 68
20260506152807 60 222 1.0 0.0 0.00 0.00 0.00 71
20260506152605 59 198 0.0 0.0 0.00 0.00 0.00 71
20260506152403 59 84 0.0 0.0 0.00 0.00 0.00 72
20260506152201 59 84 0.0 0.0 0.00 0.00 0.00 72
20260506152000 59 84 0.0 0.0 0.00 0.00 0.00 74
20260506151556 59 84 0.0 0.0 0.00 0.00 0.00 73
20260506151354 59 84 0.0 0.0 0.00 0.00 0.00 73
20260506151152 59 84 0.0 0.0 0.00 0.00 0.00 73
20260506150949 59 84 0.0 0.0 0.00 0.00 0.00 73
20260506150748 59 84 0.0 1.0 0.00 0.00 0.00 72
20260506150546 59 84 0.0 1.0 0.00 0.00 0.00 73
20260506150344 59 84 0.0 1.0 0.00 0.00 0.00 73
20260506150143 58 142 1.0 2.0 0.00 0.00 0.00 74
20260506145941 58 59 0.0 2.0 0.00 0.00 0.00 75
20260506145335 57 112 1.0 3.0 0.00 0.00 0.00 76
20260506145133 57 109 0.0 3.0 0.00 0.00 0.00 76
20260506144929 57 112 2.0 3.0 0.00 0.00 0.00 77
20260506144729 57 137 1.0 2.0 0.00 0.00 0.00 76
20260506144527 57 78 0.0 2.0 0.00 0.00 0.00 78
20260506144324 56 105 1.0 2.0 0.00 0.00 0.00 78
20260506144123 56 82 0.0 1.0 0.00 0.00 0.00 78
20260506143921 56 84 0.0 1.0 0.00 0.00 0.00 79
20260506143720 55 101 0.0 2.0 0.00 0.00 0.00 80
20260506143518 55 101 0.0 2.0 0.00 0.00 0.00 80
20260506143316 55 101 0.0 3.0 0.00 0.00 0.00 81
20260506143114 55 109 0.0 3.0 0.00 0.00 0.00 80
20260506142912 55 90 1.0 3.0 0.00 0.00 0.00 81
20260506142710 54 126 2.0 3.0 0.00 0.00 0.00 81
20260506142306 54 82 1.0 3.0 0.00 0.00 0.00 82
20260506142104 54 63 0.0 3.0 0.00 0.00 0.00 82
20260506141902 54 54 0.0 3.0 0.00 0.00 0.00 82
20260506141700 54 95 2.0 4.0 0.00 0.00 0.00 83
20260506141457 53 129 1.0 4.0 0.00 0.00 0.00 84
20260506141257 53 113 1.0 3.0 0.00 0.00 0.00 84
20260506141054 53 91 3.0 3.0 0.00 0.00 0.00 85
20260506140853 53 102 2.0 3.0 0.00 0.00 0.00 85
20260506140449 52 63 0.0 2.0 0.00 0.00 0.00 86
20260506140248 52 74 0.0 4.0 0.00 0.00 0.00 87
20260506140045 52 97 2.0 4.0 0.00 0.00 0.00 87
20260506135843 52 80 1.0 4.0 0.00 0.00 0.00 88
20260506135641 51 73 1.0 3.0 0.00 0.00 0.00 88
20260506135439 51 94 2.0 3.0 0.00 0.00 0.00 88
20260506134632 50 116 4.0 4.0 0.00 0.00 0.00 89
20260506134428 50 106 2.0 4.0 0.00 0.00 0.00 89
20260506134228 50 111 3.0 4.0 0.00 0.00 0.00 89
20260506133824 50 104 3.0 4.0 0.00 0.00 0.00 90
20260506133421 50 75 0.0 2.0 0.00 0.00 0.00 90
20260506133219 50 77 2.0 3.0 0.00 0.00 0.00 90
20260506133017 50 82 1.0 3.0 0.00 0.00 0.00 90
20260506132613 49 81 1.0 4.0 0.00 0.00 0.00 91
20260506132411 49 94 1.0 4.0 0.00 0.00 0.00 91
20260506132209 49 105 2.0 0.0 0.00 0.00 0.00 91
20260506132007 49 59 0.0 0.0 0.00 0.00 0.00 91
20260506131805 49 59 0.0 0.0 0.00 0.00 0.00 91
20260506131603 49 59 0.0 0.0 0.00 0.00 0.00 91
20260506131401 49 59 0.0 0.0 0.00 0.00 0.00 91
20260506131159 49 59 0.0 0.0 0.00 0.00 0.00 90
20260506130957 49 59 0.0 0.0 0.00 0.00 0.00 90
20260506130756 49 59 0.0 0.0 0.00 0.00 0.00 90
20260506130150 49 59 0.0 0.0 0.00 0.00 0.00 91
20260506125948 49 59 0.0 0.0 0.00 0.00 0.00 90
20260506125746 49 59 0.0 0.0 0.00 0.00 0.00 91
20260506125542 49 59 0.0 0.0 0.00 0.00 0.00 91
20260506125341 49 59 0.0 0.0 0.00 0.00 0.00 91
20260506125141 49 59 0.0 0.0 0.00 0.00 0.00 91
20260506124736 49 59 0.0 2.0 0.00 0.00 0.00 91
20260506124535 49 59 0.0 2.0 0.00 0.00 0.00 91
20260506124333 49 59 0.0 2.0 0.00 0.00 0.00 91
20260506124131 49 88 1.0 2.0 0.00 0.00 0.00 91
20260506123929 49 63 0.0 2.0 0.00 0.00 0.00 91
20260506123727 49 104 2.0 2.0 0.00 0.00 0.00 91
20260506123525 49 77 0.0 2.0 0.00 0.00 0.00 91
20260506123323 49 77 0.0 2.0 0.00 0.00 0.00 91
20260506123121 49 77 0.0 2.0 0.00 0.00 0.00 91
20260506122920 49 77 0.0 2.0 0.00 0.00 0.00 91
20260506122717 49 77 0.0 0.0 0.00 0.00 0.00 91
20260506122516 49 71 0.0 0.0 0.00 0.00 0.00 91
20260506122314 49 71 0.0 0.0 0.00 0.00 0.00 91
20260506122112 49 71 0.0 0.0 0.00 0.00 0.00 91
20260506121910 49 71 0.0 0.0 0.00 0.00 0.00 91
20260506121708 49 71 0.0 0.0 0.00 0.00 0.00 91
20260506121506 49 71 0.0 0.0 0.00 0.00 0.00 91
20260506121304 49 71 0.0 0.0 0.00 0.00 0.00 91
20260506121102 49 71 0.0 0.0 0.00 0.00 0.00 91
20260506120900 49 71 0.0 0.0 0.00 0.00 0.00 91
20260506120657 49 71 0.0 0.0 0.00 0.00 0.00 91
20260506120457 49 71 0.0 0.0 0.00 0.00 0.00 91
20260506120255 49 71 0.0 0.0 0.00 0.00 0.00 91
20260506120053 49 71 0.0 0.0 0.00 0.00 0.00 91
20260506115851 49 71 0.0 0.0 0.00 0.00 0.00 91
20260506115647 49 71 0.0 0.0 0.00 0.00 0.00 91
20260506115447 49 71 0.0 0.0 0.00 0.00 0.00 91
20260506115245 49 71 0.0 0.0 0.00 0.00 0.00 91
20260506115043 50 71 0.0 0.0 0.00 0.00 0.00 91
20260506114841 49 71 0.0 0.0 0.00 0.00 0.00 91
20260506114437 49 71 0.0 0.0 0.00 0.00 0.00 91
20260506114034 50 71 0.0 0.0 0.00 0.00 0.00 90
20260506113628 50 71 0.0 0.0 0.00 0.00 0.00 90
20260506113427 50 71 0.0 0.0 0.00 0.00 0.00 90
20260506113226 50 71 0.0 0.0 0.00 0.00 0.00 90
20260506113024 50 71 0.0 0.0 0.00 0.00 0.00 90
20260506112822 50 71 0.0 0.0 0.00 0.00 0.00 91
20260506112620 50 71 0.0 0.0 0.00 0.00 0.00 90
20260506111813 50 71 0.0 2.0 0.00 0.00 0.00 91
20260506111611 50 71 0.0 2.0 0.00 0.00 0.00 91
20260506111207 50 71 0.0 3.0 0.00 0.00 0.00 91
20260506111005 50 99 1.0 3.0 0.00 0.00 0.00 91
20260506110803 50 109 3.0 3.0 0.00 0.00 0.00 91
20260506110602 50 106 1.0 3.0 0.00 0.00 0.00 91
20260506110158 50 102 2.0 0.0 0.00 0.00 0.00 92
20260506105956 50 91 1.0 0.0 0.00 0.00 0.00 92
20260506105350 50 82 0.0 0.0 0.00 0.00 0.00 92
20260506105148 50 82 0.0 2.0 0.00 0.00 0.00 92
20260506104742 50 95 1.0 3.0 0.00 0.00 0.00 92
20260506104542 50 98 1.0 3.0 0.00 0.00 0.00 92
20260506104340 50 98 1.0 3.0 0.00 0.00 0.00 92
20260506104138 50 109 2.0 0.0 0.00 0.00 0.00 92
20260506103937 50 70 0.0 0.0 0.00 0.00 0.00 92
20260506103531 50 70 0.0 0.0 0.00 0.00 0.00 92
20260506103331 50 70 0.0 0.0 0.00 0.00 0.00 92
20260506103129 50 70 0.0 0.0 0.00 0.00 0.00 92
20260506102927 50 70 0.0 0.0 0.00 0.00 0.00 92
20260506102523 50 70 0.0 0.0 0.00 0.00 0.00 92
20260506102321 50 70 0.0 2.0 0.00 0.00 0.00 92
20260506102120 50 70 0.0 2.0 0.00 0.00 0.00 92
20260506101918 50 70 0.0 2.0 0.00 0.00 0.00 92
20260506101715 49 70 0.0 3.0 0.00 0.00 0.00 92
20260506101514 49 77 0.0 3.0 0.00 0.00 0.00 92
20260506101312 49 105 2.0 0.0 0.00 0.00 0.00 92
20260506101110 49 98 1.0 0.0 0.00 0.00 0.00 92
20260506100908 50 75 0.0 0.0 0.00 0.00 0.00 92
20260506100706 49 75 0.0 0.0 0.00 0.00 0.00 92
20260506100502 49 75 0.0 0.0 0.00 0.00 0.00 92
20260506100302 49 75 0.0 0.0 0.00 0.00 0.00 91
20260506095859 50 75 0.0 0.0 0.00 0.00 0.00 90
20260506095656 50 75 0.0 0.0 0.00 0.00 0.00 90
20260506095455 50 75 0.0 0.0 0.00 0.00 0.00 90
20260506095253 50 75 0.0 0.0 0.00 0.00 0.00 90
20260506095051 51 75 0.0 0.0 0.00 0.00 0.00 90
20260506094849 51 75 0.0 0.0 0.00 0.00 0.00 90
20260506094647 51 75 0.0 0.0 0.00 0.00 0.00 90
20260506094445 51 75 0.0 0.0 0.00 0.00 0.00 90
20260506094243 51 75 0.0 0.0 0.00 0.00 0.00 90
20260506094041 51 75 0.0 0.0 0.00 0.00 0.00 90
20260506093840 51 75 0.0 0.0 0.00 0.00 0.00 90
20260506093638 51 75 0.0 0.0 0.00 0.00 0.00 90
20260506093436 51 75 0.0 0.0 0.00 0.00 0.00 90
20260506093232 51 75 0.0 0.0 0.00 0.00 0.00 90
20260506093032 51 75 0.0 0.0 0.00 0.00 0.00 90
20260506092626 51 75 0.0 0.0 0.00 0.00 0.00 90
20260506092224 51 75 0.0 0.0 0.00 0.00 0.00 90
20260506092022 51 75 0.0 0.0 0.00 0.00 0.00 90
20260506091819 51 75 0.0 0.0 0.00 0.00 0.00 90
20260506091617 51 75 0.0 0.0 0.00 0.00 0.00 90
20260506091416 51 75 0.0 0.0 0.00 0.00 0.00 90
20260506091215 51 75 0.0 0.0 0.00 0.00 0.00 90
20260506091013 51 75 0.0 0.0 0.00 0.00 0.00 90
20260506090811 51 75 0.0 0.0 0.00 0.00 0.00 90
20260506090609 51 75 0.0 0.0 0.00 0.00 0.00 90
20260506090407 51 75 0.0 0.0 0.00 0.00 0.00 90
20260506090205 51 75 0.0 2.0 0.00 0.00 0.00 90
20260506090003 51 75 0.0 2.0 0.00 0.00 0.00 90
20260506085801 51 75 0.0 2.0 0.00 0.00 0.00 90
20260506085559 51 75 0.0 2.0 0.00 0.00 0.00 90
20260506085358 51 84 1.0 2.0 0.00 0.00 0.00 90
20260506085156 51 75 0.0 0.0 0.00 0.00 0.00 90
20260506084751 52 66 0.0 0.0 0.00 0.00 0.00 90
20260506084550 52 66 0.0 0.0 0.00 0.00 0.00 90
20260506084146 52 66 0.0 0.0 0.00 0.00 0.00 90
20260506083944 52 66 0.0 0.0 0.00 0.00 0.00 90
20260506083742 52 66 0.0 0.0 0.00 0.00 0.00 90
20260506083540 51 66 0.0 0.0 0.00 0.00 0.00 90
20260506083137 52 66 0.0 0.0 0.00 0.00 0.00 90
20260506082934 52 66 0.0 0.0 0.00 0.00 0.00 90
20260506082733 52 66 0.0 0.0 0.00 0.00 0.00 90
20260506082531 52 66 0.0 0.0 0.00 0.00 0.00 90
20260506082330 52 66 0.0 0.0 0.00 0.00 0.00 90
20260506082127 52 66 0.0 0.0 0.00 0.00 0.00 90
20260506081723 52 66 0.0 0.0 0.00 0.00 0.00 90
20260506081521 52 66 0.0 0.0 0.00 0.00 0.00 89
20260506081319 52 66 0.0 0.0 0.00 0.00 0.00 90
20260506081118 52 66 0.0 0.0 0.00 0.00 0.00 90
20260506080916 52 66 0.0 0.0 0.00 0.00 0.00 90
20260506080654 52 66 0.0 0.0 0.00 0.00 0.00 90
20260506080512 52 66 0.0 0.0 0.00 0.00 0.00 90
20260506080310 52 66 0.0 3.0 0.00 0.00 0.00 90
20260506080108 52 66 0.0 3.0 0.00 0.00 0.00 90
20260506073443 52 56 0.0 0.0 0.00 0.00 0.00 91
20260506073241 52 56 0.0 0.0 0.00 0.00 0.00 91
20260506073039 52 56 0.0 0.0 0.00 0.00 0.00 91
20260506072838 52 56 0.0 0.0 0.00 0.00 0.00 91
20260506072635 52 56 0.0 0.0 0.00 0.00 0.00 91
20260506072230 52 56 0.0 0.0 0.00 0.00 0.00 91
20260506072030 52 56 0.0 0.0 0.00 0.00 0.00 90
20260506071828 52 56 0.0 0.0 0.00 0.00 0.00 91
20260506071626 52 56 0.0 0.0 0.00 0.00 0.00 91
20260506071424 52 56 0.0 0.0 0.00 0.00 0.00 90
20260506071222 52 56 0.0 1.0 0.00 0.00 0.00 90
20260506071020 52 56 0.0 1.0 0.00 0.00 0.00 90
20260506070820 52 56 0.0 2.0 0.00 0.00 0.00 90
20260506070617 52 61 1.0 2.0 0.00 0.00 0.00 90
20260506070415 52 63 0.0 2.0 0.00 0.00 0.00 90
20260506070213 52 82 1.0 0.0 0.00 0.00 0.00 90
20260506062336 53 8 0.0 0.0 0.00 0.00 0.00 89
20260506062135 53 8 0.0 0.0 0.00 0.00 0.00 89
20260506061933 53 8 0.0 0.0 0.00 0.00 0.00 89
20260506061731 53 8 0.0 0.0 0.00 0.00 0.00 89
20260506061529 53 8 0.0 0.0 0.00 0.00 0.00 89
20260506061327 52 8 0.0 0.0 0.00 0.00 0.00 89
20260506061125 53 8 0.0 0.0 0.00 0.00 0.00 89
20260506060923 53 8 0.0 0.0 0.00 0.00 0.00 89
20260506060721 53 8 0.0 0.0 0.00 0.00 0.00 89
20260506060519 53 8 0.0 0.0 0.00 0.00 0.00 88
20260506060115 53 8 0.0 0.0 0.00 0.00 0.00 88
20260506051231 55 288 0.0 0.0 0.00 0.00 0.00 85
20260506051029 55 288 0.0 0.0 0.00 0.00 0.00 84
20260506050826 55 288 0.0 0.0 0.00 0.00 0.00 85
20260506050624 55 288 0.0 2.0 0.00 0.00 0.00 85
20260506050422 55 288 0.0 2.0 0.00 0.00 0.00 85
20260506045009 55 289 0.0 1.0 0.00 0.00 0.00 82
20260506044807 55 289 0.0 2.0 0.00 0.00 0.00 82
20260506044605 55 289 0.0 2.0 0.00 0.00 0.00 82
20260506044201 56 289 1.0 3.0 0.00 0.00 0.00 83
20260506043957 56 282 1.0 3.0 0.00 0.00 0.00 82
20260506043758 56 292 1.0 2.0 0.00 0.00 0.00 82
20260506043354 56 293 1.0 2.0 0.00 0.00 0.00 82
20260506043151 56 275 0.0 2.0 0.00 0.00 0.00 82
20260506042950 56 289 0.0 2.0 0.00 0.00 0.00 82
20260506042746 56 288 1.0 2.0 0.00 0.00 0.00 82
20260506042546 56 286 1.0 2.0 0.00 0.00 0.00 81
20260506042344 56 281 1.0 2.0 0.00 0.00 0.00 81
20260506042142 57 279 1.0 0.0 0.00 0.00 0.00 81
20260506041738 56 265 0.0 0.0 0.00 0.00 0.00 81
20260506041536 57 265 0.0 0.0 0.00 0.00 0.00 81
20260506041335 57 265 0.0 0.0 0.00 0.00 0.00 80
20260506041133 57 265 0.0 0.0 0.00 0.00 0.00 80
20260506035921 57 265 0.0 0.0 0.00 0.00 0.00 79
20260506035720 57 265 0.0 0.0 0.00 0.00 0.00 79
20260506035518 57 265 0.0 0.0 0.00 0.00 0.00 79
20260506035315 57 265 0.0 0.0 0.00 0.00 0.00 79
20260506035114 57 265 0.0 0.0 0.00 0.00 0.00 79
20260506034912 58 265 0.0 0.0 0.00 0.00 0.00 78
20260506034710 58 265 0.0 0.0 0.00 0.00 0.00 78
20260506034508 58 265 0.0 0.0 0.00 0.00 0.00 77
20260506034306 58 265 0.0 0.0 0.00 0.00 0.00 77
20260506034104 58 265 0.0 0.0 0.00 0.00 0.00 77